1501970400.35,12921,25.94,74562.3,11.01,-16.45,-16.65,0,*47
1501970401.59,12922,25.94,74566.8,11.01,-16.51,-16.79,0,*4C
1501970402.83,12923,25.94,74562.8,11.03,-16.41,-16.75,0,*42
1501970404.08,12924,25.94,74556.5,11.03,-16.55,-16.75,0,*40
1501970405.34,12925,25.94,74552.8,11.03,-16.31,-16.55,0,*41
1501970406.58,12926,25.94,74562.5,11.03,-16.41,-16.75,0,*47
1501970407.82,12927,25.94,74560.8,11.03,-16.45,-16.75,0,*42
1501970409.06,12928,25.94,74566.5,11.03,-16.45,-16.83,0,*44
1501970410.3,12929,25.94,74560.0,11.03,-16.59,-16.83,0,*48
1501970411.51,12930,25.94,74562.5,11.01,-16.75,-16.89,0,*46
1501970412.78,12931,25.94,74564.3,11.03,-16.69,-16.83,0,*42
1501970414.01,12932,25.94,74564.5,11.03,-16.75,-16.97,0,*49
1501970415.25,12933,25.94,74562.5,11.03,-16.89,-16.97,0,*4B
1501970416.5,12934,25.94,74562.8,10.99,-16.75,-17.03,0,*41
1501970417.71,12935,25.94,74552.5,11.01,-16.75,-16.93,0,*48
1501970418.94,12936,25.94,74556.5,11.01,-16.65,-16.93,0,*4A
1501970420.14,12937,25.94,74558.8,11.01,-16.79,-16.93,0,*46
1501970421.35,12938,25.94,74560.3,11.01,-16.75,-16.89,0,*4E
1501970422.58,12939,25.94,74560.8,11.01,-16.65,-16.89,0,*4E
1501970423.84,12940,25.94,74566.3,10.99,-16.79,-17.07,0,*4A
1501970425.07,12941,25.94,74564.8,11.01,-16.89,-17.07,0,*44
1501970426.29,12942,25.94,74570.5,11.01,-16.59,-16.75,0,*4E
1501970427.52,12943,25.94,74570.5,11.01,-16.45,-16.65,0,*43
1501970428.75,12944,25.94,74570.0,11.01,-16.65,-16.93,0,*4F
1501970429.96,12945,25.94,74570.5,11.01,-16.75,-16.93,0,*4F
1501970431.2,12946,25.94,74566.3,11.01,-16.79,-17.07,0,*4C
1501970432.41,12947,25.94,74566.0,11.01,-16.59,-16.79,0,*47
1501970433.62,12948,25.94,74566.5,11.01,-16.37,-16.59,0,*42
1501970434.88,12949,25.94,74566.3,11.01,-16.17,-16.51,0,*49
1501970436.13,12950,25.94,74558.8,11.01,-16.27,-16.31,0,*44
1501970437.37,12951,25.94,74562.0,11.01,-16.13,-16.37,0,*44
1501970438.6,12952,25.94,74560.0,11.01,-16.13,-16.37,0,*47
1501970439.86,12953,25.94,74558.0,11.01,-16.17,-16.31,0,*44
1501970441.09,12954,25.94,74562.5,11.01,-15.99,-16.27,0,*41
1501970442.37,12955,25.94,74564.0,11.03,-16.13,-16.31,0,*44
1501970443.61,12956,25.94,74562.8,11.05,-15.99,-16.13,0,*40
1501970444.87,12957,25.94,74564.8,11.05,-16.23,-16.31,0,*43
1501970446.12,12958,25.94,74560.3,11.03,-15.99,-16.27,0,*4F
1501970447.38,12959,25.94,74564.5,11.03,-16.31,-16.59,0,*46
1501970448.61,12960,25.94,74562.3,11.05,-16.31,-16.45,0,*47
1501970449.87,12961,25.94,74562.5,11.03,-16.13,-16.45,0,*40
1501970451.12,12962,25.94,74558.5,11.05,-16.13,-16.41,0,*41
1501970452.38,12963,25.94,74558.3,11.05,-16.13,-16.31,0,*47
1501970453.61,12964,25.94,74564.3,11.05,-16.23,-16.45,0,*40
1501970454.86,12965,25.94,74562.5,11.05,-16.27,-16.59,0,*48
1501970456.09,12966,25.94,74560.8,11.05,-16.27,-16.41,0,*42
1501970457.33,12967,25.94,74552.5,11.05,-16.23,-16.41,0,*47
1501970458.6,12968,25.94,74558.3,11.05,-16.09,-16.23,0,*44
1501970459.89,12969,25.94,74552.5,11.07,-16.09,-16.27,0,*43
1501970461.18,12970,25.94,74554.3,11.11,-16.13,-16.27,0,*47
1501970462.44,12971,25.94,74556.8,11.11,-16.03,-16.17,0,*44
1501970463.71,12972,25.94,74562.8,11.11,-16.13,-16.37,0,*44
1501970464.97,12973,25.94,74566.5,11.11,-16.13,-16.37,0,*45
1501970466.23,12974,25.94,74560.5,11.07,-16.23,-16.41,0,*47
1501970467.52,12975,25.94,74566.0,11.11,-16.13,-16.31,0,*45
1501970468.78,12976,25.94,74560.5,11.11,-16.13,-16.45,0,*45
1501970470.02,12977,25.94,74560.8,11.13,-16.17,-16.37,0,*47
1501970471.28,12978,25.94,74556.8,11.11,-16.13,-16.37,0,*4E
1501970472.54,12979,25.94,74552.5,11.15,-16.27,-16.59,0,*44
1501970473.78,12980,25.94,74558.8,11.13,-16.45,-16.65,0,*4F
1501970475.0,12981,25.94,74556.3,11.13,-16.37,-16.75,0,*4A
1501970476.23,12982,25.94,74562.0,11.13,-16.31,-16.59,0,*41
1501970477.47,12983,25.94,74560.5,11.13,-16.37,-16.65,0,*49
1501970478.7,12984,25.94,74564.5,11.13,-16.45,-16.65,0,*4B
1501970479.94,12985,25.94,74566.3,11.13,-16.31,-16.59,0,*46
1501970481.19,12986,25.94,74570.3,11.13,-16.31,-16.65,0,*4A
1501970482.44,12987,25.94,74570.3,11.15,-16.41,-16.59,0,*45
1501970483.68,12988,25.94,74566.5,11.13,-16.45,-16.65,0,*47
1501970484.89,12989,25.94,74564.3,11.13,-16.45,-16.75,0,*47
1501970486.13,12990,25.94,74564.8,11.13,-16.51,-16.79,0,*46
1501970487.37,12991,25.94,74566.5,11.11,-16.45,-16.75,0,*4C
1501970488.61,12992,25.94,74568.8,11.11,-16.45,-16.75,0,*4F
1501970489.87,12993,25.94,74564.3,11.11,-16.51,-16.79,0,*47
1501970491.14,12994,25.94,74564.0,11.11,-16.45,-16.65,0,*48
1501970492.38,12995,25.94,74564.8,11.11,-16.45,-16.59,0,*46
1501970493.63,12996,25.94,74560.5,11.13,-16.31,-16.51,0,*4C
1501970494.86,12997,25.94,74566.8,11.13,-16.37,-16.65,0,*4C
1501970496.1,12998,25.94,74566.0,11.13,-16.37,-16.65,0,*43
1501970497.32,12999,25.94,74568.5,11.13,-16.45,-16.75,0,*46
1501970498.53,13000,25.94,74566.8,11.13,-16.37,-16.59,0,*45
1501970499.79,13001,25.94,74566.0,11.11,-16.51,-16.79,0,*44
1501970501.03,13002,25.94,74570.3,11.11,-16.75,-16.93,0,*45
1501970502.29,13003,25.94,74568.8,11.11,-16.79,-17.17,0,*45
1501970503.53,13004,25.94,74568.5,11.11,-16.59,-16.89,0,*46
1501970504.76,13005,25.94,74568.0,11.11,-16.75,-16.89,0,*49
1501970506.03,13006,25.94,74568.3,11.11,-16.51,-16.75,0,*4F
1501970507.29,13007,25.94,74562.3,11.11,-16.37,-16.65,0,*4F
1501970508.55,13008,25.94,74560.5,11.11,-16.37,-16.65,0,*40
1501970509.82,13009,25.94,74556.5,11.11,-16.65,-16.79,0,*4B
1501970511.06,13010,25.94,74554.8,11.11,-16.45,-16.79,0,*41
1501970512.3,13011,25.94,74562.0,11.11,-16.37,-16.59,0,*47
1501970513.58,13012,25.94,74562.5,11.11,-16.51,-16.65,0,*4B
1501970514.85,13013,25.94,74562.8,11.11,-16.51,-16.75,0,*4B
1501970516.11,13014,25.94,74560.5,11.11,-16.79,-17.03,0,*46
1501970517.35,13015,25.94,74558.8,11.11,-16.59,-16.89,0,*46
1501970518.61,13016,25.94,74562.5,11.07,-16.69,-16.93,0,*4A
1501970519.84,13017,25.94,74564.0,11.11,-16.59,-16.89,0,*44
1501970521.09,13018,25.94,74562.8,11.11,-16.59,-16.75,0,*48
1501970522.33,13019,25.94,74566.8,11.07,-16.55,-16.79,0,*4E
1501970523.59,13020,25.94,74564.8,11.11,-16.65,-16.89,0,*4F
1501970524.83,13021,25.94,74560.3,11.11,-16.59,-16.89,0,*41
1501970526.09,13022,25.94,74562.3,11.07,-16.69,-16.97,0,*49
1501970527.33,13023,25.94,74562.3,11.07,-16.55,-16.83,0,*42
1501970528.6,13024,25.94,74564.8,11.11,-16.65,-16.83,0,*41
1501970529.84,13025,25.94,74568.5,11.11,-16.37,-16.75,0,*4E
1501970531.11,13026,25.94,74566.0,11.07,-16.41,-16.65,0,*4A
1501970532.35,13027,25.94,74560.3,11.07,-16.37,-16.55,0,*49
1501970533.61,13028,25.94,74562.8,11.11,-16.17,-16.45,0,*42
1501970534.85,13029,25.94,74558.3,11.07,-16.37,-16.55,0,*47
1501970536.11,13030,25.94,74554.5,11.11,-16.37,-16.65,0,*4B
1501970537.37,13031,25.94,74558.3,11.11,-16.37,-16.65,0,*4A
1501970538.63,13032,25.94,74558.8,11.11,-16.37,-16.65,0,*49
1501970539.9,13033,25.94,74558.8,11.07,-16.51,-16.79,0,*42
1501970541.16,13034,25.94,74562.8,11.07,-16.41,-16.69,0,*45
1501970542.42,13035,25.94,74564.0,11.11,-16.31,-16.59,0,*47
1501970543.69,13036,25.94,74568.3,11.11,-16.37,-16.65,0,*4D
1501970544.95,13037,25.94,74568.5,11.11,-16.45,-16.65,0,*49
1501970546.19,13038,25.94,74554.5,11.11,-16.45,-16.59,0,*49
1501970547.46,13039,25.94,74556.8,11.07,-16.41,-16.65,0,*44
1501970548.72,13040,25.94,74566.0,11.07,-16.55,-16.69,0,*43
1501970549.99,13041,25.94,74564.0,11.07,-16.65,-16.83,0,*45
1501970551.26,13042,25.94,74570.8,11.07,-16.69,-16.83,0,*4A
1501970552.5,13043,25.94,74564.8,11.11,-16.59,-16.75,0,*46
1501970553.76,13044,25.94,74566.5,11.07,-16.51,-16.79,0,*42
1501970555.05,13045,25.94,74566.8,11.11,-16.23,-16.65,0,*4C
1501970556.31,13046,25.94,74574.5,11.11,-16.51,-16.79,0,*47
1501970557.58,13047,25.94,74572.8,11.07,-16.65,-16.79,0,*46
1501970558.86,13048,25.94,74574.3,11.11,-16.51,-16.65,0,*44
1501970560.14,13049,25.94,74564.5,11.11,-16.23,-16.51,0,*47
1501970561.4,13050,25.94,74570.5,11.13,-16.23,-16.51,0,*4D
1501970562.64,13051,25.94,74562.3,11.07,-16.55,-16.93,0,*46
1501970563.88,13052,25.94,74562.8,11.11,-16.37,-16.75,0,*4E
1501970565.11,13053,25.94,74560.0,11.13,-16.17,-16.45,0,*4C
1501970566.35,13054,25.94,74564.8,11.11,-16.37,-16.59,0,*46
1501970567.62,13055,25.94,74564.0,11.11,-16.51,-16.75,0,*49
1501970568.85,13056,25.94,74566.3,11.11,-16.59,-16.89,0,*41
1501970570.12,13057,25.94,74562.3,11.07,-16.83,-17.21,0,*43
1501970571.38,13058,25.94,74564.3,11.07,-16.97,-17.11,0,*4A
1501970572.65,13059,25.94,74570.8,11.07,-16.83,-17.11,0,*4E
1501970573.92,13060,25.94,74570.3,11.07,-16.83,-17.07,0,*43
1501970575.16,13061,25.94,74570.0,11.07,-16.83,-16.97,0,*4A
1501970576.43,13062,25.94,74564.3,11.07,-16.79,-17.07,0,*44
1501970577.69,13063,25.94,74564.3,11.07,-16.69,-16.97,0,*4C
1501970578.9,13064,25.94,74562.3,11.05,-16.89,-16.97,0,*47
1501970580.14,13065,25.94,74562.3,11.05,-16.89,-17.17,0,*4F
1501970581.4,13066,25.94,74562.3,11.03,-16.69,-16.83,0,*48
1501970582.62,13067,25.94,74568.0,11.05,-16.55,-16.83,0,*40
1501970583.86,13068,25.94,74560.8,11.05,-16.75,-17.03,0,*44
1501970585.1,13069,25.94,74566.0,11.05,-16.89,-17.11,0,*45
1501970586.32,13070,25.94,74564.5,11.05,-16.59,-16.89,0,*40
1501970587.53,13071,25.94,74566.8,11.05,-16.59,-16.83,0,*4B
1501970588.77,13072,25.94,74560.3,11.03,-16.45,-16.75,0,*4A
1501970590.04,13073,25.94,74552.0,11.03,-16.27,-16.55,0,*4D
1501970591.3,13074,25.94,74546.0,11.05,-16.27,-16.31,0,*4E
1501970592.53,13075,25.94,74550.8,11.05,-16.27,-16.45,0,*4C
1501970593.75,13076,25.94,74544.8,11.05,-16.41,-16.59,0,*42
1501970595.02,13077,25.94,74550.5,11.05,-16.09,-16.27,0,*46
1501970596.29,13078,25.94,74546.5,11.05,-16.13,-16.23,0,*46
1501970597.55,13079,25.94,74552.5,11.07,-15.95,-16.17,0,*4F
1501970598.79,13080,25.94,74540.5,11.11,-15.75,-16.03,0,*45
1501970600.06,13081,25.94,74544.8,11.07,-16.03,-16.17,0,*44
1501970601.32,13082,25.94,74546.0,11.11,-16.13,-16.37,0,*43
1501970602.61,13083,25.94,74546.5,11.11,-16.13,-16.31,0,*44
1501970603.86,13084,25.94,74550.5,11.11,-15.99,-16.23,0,*41
1501970605.12,13085,25.94,74540.0,11.11,-16.23,-16.45,0,*42
1501970606.4,13086,25.94,74544.8,11.07,-16.51,-16.69,0,*4D
1501970607.65,13087,25.94,74548.3,11.11,-16.37,-16.59,0,*48
1501970608.93,13088,25.94,74554.8,11.11,-16.31,-16.65,0,*4E
1501970610.21,13089,25.94,74562.3,11.11,-16.31,-16.51,0,*48
1501970611.45,13090,25.94,74544.0,11.11,-16.37,-16.59,0,*4E
1501970612.69,13091,25.94,74554.5,11.13,-16.37,-16.65,0,*42
1501970613.92,13092,25.94,74548.3,11.13,-16.45,-16.65,0,*44
1501970615.19,13093,25.94,74546.5,11.07,-16.41,-16.69,0,*48
1501970616.45,13094,25.94,74548.0,11.11,-16.37,-16.65,0,*45
1501970617.71,13095,25.94,74546.3,11.11,-16.45,-16.65,0,*41
1501970618.99,13096,25.94,74544.0,11.11,-16.31,-16.65,0,*41
1501970620.28,13097,25.94,74546.3,11.11,-16.31,-16.65,0,*40
1501970621.55,13098,25.94,74538.8,11.11,-16.31,-16.51,0,*48
1501970622.81,13099,25.94,74538.3,11.13,-16.23,-16.51,0,*48
1501970624.1,13100,25.94,74540.5,11.11,-16.51,-16.65,0,*49
1501970625.38,13101,25.94,74538.0,11.07,-16.27,-16.51,0,*49
1501970626.63,13102,25.88,74546.8,11.13,-16.23,-16.51,0,*4B
1501970627.92,13103,25.94,74552.8,11.11,-16.31,-16.65,0,*4C
1501970629.15,13104,25.94,74556.3,11.13,-16.51,-16.79,0,*42
1501970630.41,13105,25.94,74556.3,11.13,-16.31,-16.65,0,*48
1501970631.66,13106,25.94,74558.3,11.13,-16.23,-16.51,0,*4F
1501970632.92,13107,25.88,74554.0,11.13,-16.23,-16.51,0,*4E
1501970634.18,13108,25.94,74558.5,11.13,-16.17,-16.31,0,*40
1501970635.41,13109,25.94,74560.3,11.13,-16.03,-16.23,0,*47
1501970636.65,13110,25.94,74560.3,11.13,-16.23,-16.59,0,*40
1501970637.88,13111,25.94,74560.3,11.13,-16.17,-16.45,0,*4B
1501970639.13,13112,25.94,74562.5,11.15,-16.55,-16.75,0,*4B
1501970640.34,13113,25.94,74566.0,11.13,-16.59,-16.89,0,*43
1501970641.57,13114,25.94,74566.5,11.11,-16.59,-16.93,0,*4D
1501970642.78,13115,25.94,74564.3,11.13,-16.75,-16.93,0,*40
1501970644.01,13116,25.94,74564.3,11.13,-16.65,-16.93,0,*42
1501970645.23,13117,25.88,74560.5,11.13,-16.59,-16.75,0,*44
1501970646.45,13118,25.94,74564.3,11.13,-16.37,-16.75,0,*43
1501970647.66,13119,25.94,74560.5,11.13,-16.45,-16.79,0,*4B
1501970648.89,13120,25.88,74560.0,11.13,-16.65,-16.89,0,*4C
1501970650.16,13121,25.94,74560.5,11.11,-16.65,-16.97,0,*40
1501970651.39,13122,25.94,74562.8,11.11,-16.59,-16.93,0,*48
1501970652.65,13123,25.94,74562.0,11.11,-16.31,-16.59,0,*41
1501970653.89,13124,25.88,74558.8,11.11,-16.45,-16.75,0,*4B
1501970655.14,13125,25.94,74560.3,11.07,-16.55,-16.83,0,*45
1501970656.38,13126,25.94,74556.0,11.11,-16.45,-16.79,0,*45
1501970657.62,13127,25.94,74558.5,11.11,-16.37,-16.75,0,*4D
1501970658.88,13128,25.94,74562.5,11.11,-16.37,-16.65,0,*43
1501970660.12,13129,25.94,74562.5,11.11,-16.45,-16.75,0,*46
1501970661.38,13130,25.88,74558.0,11.11,-16.65,-16.89,0,*4F
1501970662.63,13131,25.94,74562.8,11.11,-16.45,-16.75,0,*4F
1501970663.86,13132,25.94,74560.5,11.11,-16.59,-16.89,0,*42
1501970665.13,13133,25.94,74566.8,11.11,-16.51,-16.75,0,*48
1501970666.36,13134,25.94,74560.8,11.07,-16.79,-16.97,0,*4E
1501970667.63,13135,25.94,74560.8,11.11,-16.89,-17.03,0,*4B
1501970668.86,13136,25.88,74564.8,11.07,-16.83,-16.93,0,*4D
1501970670.1,13137,25.94,74562.0,11.11,-16.75,-16.93,0,*42
1501970671.36,13138,25.88,74556.8,11.11,-16.51,-16.79,0,*4F
1501970672.62,13139,25.88,74560.3,11.11,-16.51,-16.79,0,*4E
1501970673.89,13140,25.88,74560.0,11.11,-16.23,-16.59,0,*47
1501970675.15,13141,25.88,74562.0,11.07,-16.37,-16.69,0,*47
1501970676.41,13142,25.94,74562.8,11.11,-16.45,-16.65,0,*4A
1501970677.7,13143,25.88,74562.8,11.07,-16.51,-16.65,0,*49
1501970678.96,13144,25.88,74566.8,11.11,-16.23,-16.59,0,*43
1501970680.23,13145,25.88,74566.5,11.11,-16.13,-16.37,0,*49
1501970681.49,13146,25.88,74556.5,11.11,-16.13,-16.45,0,*4F
1501970682.72,13147,25.94,74556.3,11.13,-16.13,-16.37,0,*49
1501970684.0,13148,25.88,74546.3,11.11,-16.23,-16.51,0,*47
1501970685.29,13149,25.88,74554.3,11.11,-16.17,-16.31,0,*47
1501970686.57,13150,25.88,74552.0,11.11,-16.23,-16.51,0,*4E
1501970687.8,13151,25.88,74554.3,11.13,-16.23,-16.45,0,*48
1501970689.06,13152,25.88,74556.5,11.13,-16.13,-16.23,0,*48
1501970690.3,13153,25.88,74552.8,11.13,-16.23,-16.37,0,*4F
1501970691.55,13154,25.88,74554.3,11.13,-16.23,-16.51,0,*48
1501970692.81,13155,25.88,74552.0,11.13,-16.17,-16.51,0,*4E
1501970694.07,13156,25.88,74550.8,11.13,-16.51,-16.65,0,*48
1501970695.28,13157,25.88,74556.5,11.13,-16.59,-16.89,0,*43
1501970696.54,13158,25.94,74560.3,11.13,-16.65,-17.03,0,*40
1501970697.81,13159,25.88,74556.5,11.15,-16.65,-16.79,0,*4B
1501970699.05,13160,25.94,74556.8,11.13,-16.65,-16.79,0,*47
1501970700.3,13161,25.88,74568.5,11.15,-16.55,-16.75,0,*4F
1501970701.56,13162,25.88,74566.0,11.11,-16.65,-16.79,0,*47
1501970702.78,13163,25.88,74558.5,11.13,-16.37,-16.75,0,*4F
1501970703.99,13164,25.94,74556.0,11.13,-16.37,-16.59,0,*46
1501970705.26,13165,25.88,74558.0,11.11,-16.51,-16.75,0,*4B
1501970706.52,13166,25.94,74562.8,11.11,-16.31,-16.59,0,*40
1501970707.75,13167,25.88,74562.0,11.13,-16.17,-16.45,0,*4A
1501970709.02,13168,25.88,74556.8,11.15,-16.17,-16.59,0,*4E
1501970710.28,13169,25.88,74560.3,11.13,-16.13,-16.51,0,*45
1501970711.51,13170,25.88,74562.3,11.13,-16.51,-16.89,0,*4E
1501970712.75,13171,25.94,74568.3,11.15,-16.75,-16.89,0,*4F
1501970713.96,13172,25.88,74568.8,11.13,-16.59,-16.79,0,*4B
1501970715.2,13173,25.88,74570.8,11.13,-16.51,-16.75,0,*4E
1501970716.44,13174,25.88,74566.5,11.13,-16.51,-16.75,0,*49
1501970717.66,13175,25.88,74556.0,11.13,-16.45,-16.75,0,*4D
1501970718.9,13176,25.94,74564.5,11.15,-16.45,-16.75,0,*48
1501970720.13,13177,25.94,74566.8,11.13,-16.45,-16.65,0,*4E
1501970721.4,13178,25.88,74558.0,11.15,-16.41,-16.69,0,*4F
1501970722.64,13179,25.88,74566.0,11.13,-16.51,-16.75,0,*44
1501970723.88,13180,25.88,74562.0,11.13,-16.51,-16.75,0,*42
1501970725.12,13181,25.94,74564.5,11.13,-16.65,-16.79,0,*48
1501970726.38,13182,25.88,74562.0,11.15,-16.45,-16.69,0,*4E
1501970727.59,13183,25.88,74554.0,11.13,-16.45,-16.79,0,*48
1501970728.84,13184,25.88,74556.0,11.15,-16.45,-16.75,0,*45
1501970730.07,13185,25.88,74564.5,11.13,-16.37,-16.65,0,*46
1501970731.33,13186,25.94,74564.5,11.13,-16.51,-16.65,0,*45
1501970732.55,13187,25.88,74556.5,11.13,-16.45,-16.75,0,*40
1501970733.76,13188,25.94,74564.3,11.13,-16.45,-16.75,0,*4F
1501970735.01,13189,25.94,74564.5,11.15,-16.55,-16.83,0,*40
1501970736.25,13190,25.88,74562.8,11.15,-16.59,-16.83,0,*44
1501970737.49,13191,25.88,74560.8,11.15,-16.55,-16.83,0,*49
1501970738.73,13192,25.88,74560.8,11.13,-16.65,-16.79,0,*4A
1501970739.94,13193,25.88,74560.8,11.13,-16.79,-16.93,0,*42
1501970741.14,13194,25.88,74564.0,11.13,-16.75,-16.89,0,*42
1501970742.38,13195,25.88,74560.5,11.13,-16.65,-16.93,0,*49
1501970743.62,13196,25.88,74566.8,11.13,-16.75,-17.07,0,*47
1501970744.83,13197,25.88,74564.3,11.13,-16.75,-16.89,0,*41
1501970746.04,13198,25.88,74560.8,11.13,-16.75,-16.89,0,*4E
1501970747.31,13199,25.94,74562.8,11.13,-16.65,-17.03,0,*4D
1501970748.52,13200,25.88,74560.8,11.13,-16.75,-16.89,0,*4C
1501970749.72,13201,25.88,74562.3,11.13,-16.79,-16.89,0,*41
1501970750.97,13202,25.88,74560.3,11.15,-16.59,-16.83,0,*4C
1501970752.2,13203,25.88,74560.5,11.13,-16.65,-16.79,0,*41
1501970753.41,13204,25.88,74558.5,11.13,-16.59,-16.93,0,*4D
1501970754.68,13205,25.88,74558.3,11.11,-16.79,-17.07,0,*40
1501970755.95,13206,25.88,74562.8,11.11,-16.79,-17.07,0,*43
1501970757.22,13207,25.88,74560.0,11.11,-16.89,-17.07,0,*4D
1501970758.46,13208,25.88,74562.0,11.07,-16.79,-16.93,0,*46
1501970759.72,13209,25.88,74560.5,11.07,-16.93,-17.11,0,*48
1501970760.98,13210,25.88,74566.3,11.07,-16.97,-17.25,0,*43
1501970762.23,13211,25.88,74562.3,11.11,-16.93,-17.21,0,*45
1501970763.52,13212,25.88,74566.8,11.07,-17.07,-17.25,0,*49
1501970764.78,13213,25.88,74560.3,11.07,-16.93,-17.11,0,*43
1501970766.02,13214,25.88,74564.0,11.07,-16.79,-16.97,0,*4F
1501970767.29,13215,25.88,74564.8,11.11,-16.89,-17.07,0,*4E
1501970768.55,13216,25.88,74564.3,11.11,-16.89,-17.03,0,*49
1501970769.78,13217,25.88,74562.8,11.11,-16.75,-16.93,0,*43
1501970771.05,13218,25.88,74564.3,11.07,-16.93,-17.07,0,*4F
1501970772.32,13219,25.88,74564.3,11.07,-16.83,-17.07,0,*4F
1501970773.59,13220,25.88,74564.8,11.07,-16.79,-17.07,0,*40
1501970774.86,13221,25.88,74564.8,11.11,-16.93,-17.07,0,*42
1501970776.13,13222,25.88,74562.3,11.07,-16.93,-17.07,0,*46
1501970777.38,13223,25.88,74560.3,11.11,-16.93,-17.17,0,*41
1501970778.62,13224,25.88,74564.0,11.07,-16.83,-16.93,0,*4D
1501970779.88,13225,25.88,74566.0,11.07,-16.83,-17.11,0,*47
1501970781.12,13226,25.88,74562.8,11.07,-16.79,-16.97,0,*4E
1501970782.39,13227,25.88,74560.5,11.07,-16.83,-17.07,0,*42
1501970783.61,13228,25.88,74562.3,11.05,-16.83,-16.97,0,*47
1501970784.85,13229,25.88,74562.3,11.05,-16.83,-17.03,0,*4A
1501970786.06,13230,25.88,74562.8,11.05,-16.97,-17.31,0,*46
1501970787.29,13231,25.88,74560.0,11.05,-16.97,-17.17,0,*43
1501970788.53,13232,25.88,74558.5,11.05,-16.89,-17.11,0,*49
1501970789.77,13233,25.88,74556.3,11.05,-16.89,-17.11,0,*48
1501970791.01,13234,25.88,74556.0,11.05,-16.97,-17.25,0,*47
1501970792.24,13235,25.88,74562.5,11.05,-16.97,-17.03,0,*42
1501970793.51,13236,25.88,74568.3,11.05,-17.03,-17.17,0,*48
1501970794.77,13237,25.88,74568.3,11.03,-17.03,-17.31,0,*4B
1501970796.04,13238,25.88,74570.5,11.03,-17.17,-17.35,0,*45
1501970797.27,13239,25.88,74568.3,11.05,-16.97,-17.25,0,*4A
1501970798.56,13240,25.88,74564.0,11.03,-17.03,-17.25,0,*4E
1501970799.82,13241,25.88,74564.8,11.03,-16.97,-17.17,0,*42
1501970801.1,13242,25.88,74564.3,11.03,-17.03,-17.17,0,*4D
1501970802.34,13243,25.88,74564.0,11.05,-17.03,-17.31,0,*4E
1501970803.58,13244,25.88,74566.5,11.05,-17.03,-17.31,0,*49
1501970804.85,13245,25.88,74566.0,11.03,-17.17,-17.35,0,*4F
1501970806.12,13246,25.88,74564.8,11.03,-17.17,-17.35,0,*4C
1501970807.38,13247,25.88,74570.0,11.03,-17.11,-17.31,0,*4F
1501970808.62,13248,25.88,74564.5,11.01,-17.07,-17.35,0,*41
1501970809.88,13249,25.88,74564.0,11.01,-17.03,-17.21,0,*41
1501970811.13,13250,25.88,74568.0,11.01,-17.07,-17.21,0,*4D
1501970812.37,13251,25.88,74562.0,11.01,-17.07,-17.31,0,*4D
1501970813.6,13252,25.88,74562.8,11.01,-16.89,-17.07,0,*4C
1501970814.84,13253,25.88,74562.5,11.01,-16.93,-17.07,0,*46
1501970816.07,13254,25.88,74560.8,11.01,-16.89,-17.17,0,*4B
1501970817.32,13255,25.88,74558.3,10.99,-16.89,-17.03,0,*4F
1501970818.55,13256,25.88,74562.3,11.01,-16.89,-17.03,0,*4C
1501970819.78,13257,25.88,74562.3,11.01,-16.93,-17.17,0,*43
1501970821.03,13258,25.88,74560.5,10.99,-16.89,-17.03,0,*42
1501970822.26,13259,25.88,74558.8,11.01,-16.93,-17.03,0,*48
1501970823.51,13260,25.88,74556.3,10.99,-16.89,-17.07,0,*4D
1501970824.75,13261,25.88,74558.8,11.01,-16.89,-17.07,0,*4C
1501970825.99,13262,25.88,74564.0,10.99,-16.93,-17.17,0,*45
1501970827.25,13263,25.88,74566.8,11.01,-17.03,-17.21,0,*49
1501970828.51,13264,25.88,74566.5,11.01,-17.03,-17.21,0,*4E
1501970829.78,13265,25.88,74560.8,11.01,-17.03,-17.07,0,*4B
1501970831.02,13266,25.88,74564.8,10.99,-16.93,-17.17,0,*41
1501970832.26,13267,25.88,74570.3,10.99,-16.93,-17.03,0,*45
1501970833.5,13268,25.88,74574.0,10.99,-16.93,-17.03,0,*4A
1501970834.71,13269,25.88,74566.5,11.01,-16.79,-16.93,0,*47
1501970835.95,13270,25.88,74562.3,10.99,-16.65,-16.89,0,*49
1501970837.19,13271,25.88,74558.3,11.01,-16.65,-16.89,0,*48
1501970838.39,13272,25.88,74558.0,11.01,-16.59,-16.89,0,*44
1501970839.6,13273,25.88,74558.8,11.01,-16.59,-16.79,0,*4A
1501970840.82,13274,25.88,74566.3,10.99,-16.79,-16.93,0,*4B
1501970842.07,13275,25.88,74566.3,10.99,-16.65,-16.89,0,*4C
1501970843.31,13276,25.88,74570.8,10.99,-16.65,-16.89,0,*4F
1501970844.52,13277,25.88,74566.5,11.01,-16.59,-16.89,0,*41
1501970845.77,13278,25.88,74558.0,10.99,-16.65,-16.89,0,*41
1501970846.99,13279,25.88,74558.8,10.99,-16.75,-16.89,0,*41
1501970848.21,13280,25.88,74554.3,10.99,-16.59,-16.89,0,*49
1501970849.44,13281,25.88,74558.5,11.01,-16.65,-16.79,0,*48
1501970850.66,13282,25.88,74560.0,10.99,-16.75,-16.89,0,*45
1501970851.88,13283,25.88,74558.3,11.01,-16.59,-16.75,0,*49
1501970853.09,13284,25.88,74562.0,11.01,-16.59,-16.79,0,*42
1501970854.34,13285,25.88,74552.8,10.99,-16.65,-16.79,0,*4C
1501970855.57,13286,25.88,74554.8,10.99,-16.59,-16.79,0,*40
1501970856.78,13287,25.88,74558.0,11.01,-16.59,-16.79,0,*41
1501970858.01,13288,25.88,74556.3,11.01,-16.51,-16.75,0,*4A
1501970859.25,13289,25.88,74558.3,11.01,-16.37,-16.65,0,*4A
1501970860.48,13290,25.88,74560.3,11.01,-16.37,-16.65,0,*42
1501970861.71,13291,25.88,74560.5,11.01,-16.51,-16.79,0,*4E
1501970862.95,13292,25.88,74564.8,11.03,-16.45,-16.75,0,*46
1501970864.19,13293,25.88,74566.0,11.01,-16.79,-17.03,0,*4A
1501970865.42,13294,25.88,74566.8,11.01,-16.79,-17.03,0,*4D
1501970866.63,13295,25.88,74566.0,11.01,-16.75,-16.93,0,*48
1501970867.84,13296,25.88,74556.5,11.01,-16.59,-16.79,0,*41
1501970869.05,13297,25.88,74556.8,11.01,-16.79,-16.89,0,*4D
1501970870.25,13298,25.88,74560.0,11.01,-16.79,-16.93,0,*49
1501970871.48,13299,25.88,74562.8,11.01,-16.65,-16.89,0,*4E
1501970872.69,13300,25.88,74566.3,11.01,-16.79,-16.93,0,*49
1501970873.92,13301,25.88,74562.8,11.01,-16.89,-17.03,0,*4F
1501970875.17,13302,25.88,74566.8,10.99,-16.89,-17.03,0,*4C
1501970876.41,13303,25.88,74566.3,11.01,-16.89,-17.07,0,*49
1501970877.61,13304,25.88,74568.3,11.01,-16.89,-16.93,0,*42
1501970878.83,13305,25.88,74564.3,10.99,-16.75,-16.89,0,*4B
1501970880.06,13306,25.88,74562.0,10.99,-16.59,-16.79,0,*49
1501970881.3,13307,25.88,74564.0,10.99,-16.51,-16.79,0,*40
1501970882.56,13308,25.88,74560.0,10.99,-16.65,-16.75,0,*44
1501970883.77,13309,25.88,74562.8,11.01,-16.59,-16.79,0,*46
1501970885.01,13310,25.88,74562.8,11.01,-16.65,-16.79,0,*41
1501970886.23,13311,25.88,74554.8,10.99,-16.45,-16.75,0,*4E
1501970887.46,13312,25.88,74556.0,11.01,-16.37,-16.51,0,*4E
1501970888.69,13313,25.88,74554.5,11.01,-16.31,-16.55,0,*4D
1501970889.96,13314,25.88,74552.0,10.99,-16.27,-16.51,0,*49
1501970891.18,13315,25.88,74558.5,11.01,-16.31,-16.45,0,*4A
1501970892.41,13316,25.88,74562.0,11.01,-16.37,-16.51,0,*4A
1501970893.64,13317,25.88,74562.8,11.01,-16.27,-16.37,0,*4A
1501970894.87,13318,25.88,74562.3,11.01,-16.27,-16.45,0,*40
1501970896.09,13319,25.88,74566.0,10.99,-16.75,-16.89,0,*46
1501970897.32,13320,25.88,74566.5,11.01,-16.65,-16.89,0,*4D